This demonstration page uses our WeatherBlox Daily Observations layout. Learn more.

Hourly Observations for October 28, 2019

Temp ( °F °C ) Dew Point ( °F °C ) Humidity (%) Winds ( mph kmh ) Pressure ( in mb ) Visibility ( mi km ) Precip ( " mm )
12:54 am 00:54 Cloudy 34 1.1 16 -8.9 48 48 NNW 18 30 30.21 1023 10 16.09344 0 0
1:54 am 01:54 Cloudy 34 1.1 17 -8.3 50 50 N 15 24 30.21 1023 10 16.09344 0 0
2:54 am 02:54 Cloudy 34 1.1 17 -8.3 50 50 N 16 26 30.24 1024 10 16.09344 0 0
3:54 am 03:54 Cloudy 33 0.6 16 -8.9 49 49 N 15 24 30.21 1023 10 16.09344 0 0
4:54 am 04:54 Cloudy 32 0 16 -8.9 52 52 N 15 24 30.21 1023 10 16.09344 0 0
5:54 am 05:54 Cloudy 30 -1.1 16 -8.9 56 56 N 9 15 30.24 1024 10 16.09344 0 0
6:54 am 06:54 Mostly Clear 29 -1.7 16 -8.9 58 58 NNW 8 13 30.24 1024 10 16.09344 0 0
7:54 am 07:54 Sunny 27 -2.8 17 -8.3 66 66 N 7 11 30.24 1024 10 16.09344 0 0
8:54 am 08:54 Sunny 28 -2.2 18 -7.8 66 66 NNW 5 7 30.24 1024 10 16.09344 0 0
9:54 am 09:54 Sunny 32 0 18 -7.8 56 56 N 9 15 30.24 1024 10 16.09344 0 0
10:54 am 10:54 Sunny 34 1.1 16 -8.9 48 48 N 7 11 30.24 1024 10 16.09344 0 0
11:54 am 11:54 Sunny 37 2.8 14 -10 39 39 VRB 6 9 30.21 1023 10 16.09344 0 0
12:54 pm 12:54 Cloudy 37 2.8 13 -10.6 37 37 NNW 6 9 30.18 1022 10 16.09344 0 0
1:54 pm 13:54 Cloudy 38 3.3 13 -10.6 36 36 N 5 7 30.15 1021 10 16.09344 0 0
2:54 pm 14:54 Cloudy 37 2.8 13 -10.6 37 37 N 7 11 30.12 1020 10 16.09344 0 0
3:54 pm 15:54 Cloudy 38 3.3 14 -10 37 37 NNW 9 15 30.12 1020 10 16.09344 0 0
4:54 pm 16:54 Cloudy 36 2.2 16 -8.9 44 44 NNW 10 17 30.15 1021 10 16.09344 0 0
5:46 pm 17:46 Cloudy with Light Snow 32 0 25 -3.9 75 75 NW 12 19 30.21 1023 1.75 2.816352 0.001 0.001
5:54 pm 17:54 Cloudy with Light Snow 31 -0.6 26 -3.3 82 82 NW 9 15 30.15 1021 1 1.609344 0.001 0.001
6:07 pm 18:07 Cloudy with Light Snow 31 -0.6 27 -2.8 85 85 NW 8 13 30.21 1023 1 1.609344 0.001 0.001
6:11 pm 18:11 Mostly Cloudy with Scattered Snow Showers 30 -1.1 27 -2.8 88 88 NW 9 15 30.24 1024 0.75 1.207008 0.001 0.001
6:22 pm 18:22 Cloudy with Light Snow 30 -1.1 27 -2.8 88 88 NW 8 13 30.24 1024 0.75 1.207008 0.01 0.254
6:54 pm 18:54 Cloudy with Light Snow 30 -1.1 27 -2.8 88 88 NNW 8 13 30.15 1021 0.75 1.207008 0.02 0.508
7:01 pm 19:01 Cloudy with Light Snow 30 -1.1 27 -2.8 88 88 NW 8 13 30.24 1024 1.25 2.01168 0.01 0.254
7:19 pm 19:19 Cloudy with Light Snow 30 -1.1 27 -2.8 88 88 NW 7 11 30.24 1024 1.75 2.816352 0.01 0.254
7:26 pm 19:26 Cloudy with Light Snow 30 -1.1 27 -2.8 88 88 WNW 6 9 30.24 1024 2 3.218688 0.01 0.254
7:54 pm 19:54 Cloudy with Light Snow 30 -1.1 27 -2.8 88 88 NW 5 7 30.18 1022 2 3.218688 0.02 0.508
8:23 pm 20:23 Cloudy with Light Snow 30 -1.1 28 -2.2 92 92 W 5 7 30.27 1025 2.5 4.02336 0.001 0.001
8:54 pm 20:54 Cloudy with Light Snow 30 -1.1 27 -2.8 88 88 W 5 7 30.21 1023 4 6.437376 0.01 0.254
9:14 pm 21:14 Cloudy with Light Snow 30 -1.1 27 -2.8 88 88 WNW 5 7 30.27 1025 2.5 4.02336 0.001 0.001
9:26 pm 21:26 Cloudy with Light Snow 30 -1.1 27 -2.8 88 88 W 3 6 30.27 1025 4 6.437376 0.001 0.001
9:54 pm 21:54 Cloudy with Light Snow 30 -1.1 27 -2.8 88 88 WNW 6 9 30.21 1023 5 8.04672 0.001 0.001
10:30 pm 22:30 Cloudy 30 -1.1 27 -2.8 88 88 W 3 6 30.3 1026 8 12.874752 0.001 0.001
10:54 pm 22:54 Partly Cloudy 29 -1.7 27 -2.8 92 92 NW 3 6 30.24 1024 10 16.09344 0.001 0.001
11:54 pm 23:54 Clear with Mist and Fog 26 -3.3 22 -5.6 84 84 Calm 30.21 1023 6 9.656064 0 0

Powered by AerisWeather